• In Belarus
  • List of Countries
  • For 7 days
  • Water Temperature
  • Satellite Maps
  • Weather Map
  • Weather Widgets
  • user-avatar
    Login

    Hourly Weather Dubai

    Today, 21 July, Saturday

    Time Temperature Precipitation Wind Pressure Humidity
    00:00 +37°C° 0 mm 1 mps 745 mmHg 35%
    01:00 +37°C° 0 mm 1 mps 745 mmHg 33%
    02:00 +36°C° 0 mm 1 mps 745 mmHg 34%
    03:00 +35°C° 0 mm 1 mps 745 mmHg 34%
    04:00 +33°C° 0 mm 0 mps 745 mmHg 35%
    05:00 +33°C° 0 mm 0 mps 745 mmHg 33%
    06:00 +36°C° 0 mm 1 mps 745 mmHg 31%
    07:00 +37°C° 0 mm 1 mps 746 mmHg 29%
    08:00 +40°C° 0 mm 1 mps 746 mmHg 27%
    09:00 +41°C° 0 mm 2 mps 746 mmHg 25%
    10:00 +43°C° 0 mm 2 mps 746 mmHg 23%
    11:00 +44°C° 0 mm 3 mps 746 mmHg 22%
    12:00 +45°C° 0 mm 3 mps 746 mmHg 21%
    13:00 +47°C° 0 mm 4 mps 746 mmHg 20%
    14:00 +45°C° 0 mm 4 mps 746 mmHg 22%
    15:00 +45°C° 0 mm 4 mps 745 mmHg 24%
    16:00 +45°C° 0 mm 4 mps 745 mmHg 26%
    17:00 +43°C° 0 mm 4 mps 745 mmHg 28%
    18:00 +42°C° 0 mm 4 mps 745 mmHg 29%
    19:00 +40°C° 0 mm 3 mps 745 mmHg 31%
    20:00 +40°C° 0 mm 3 mps 745 mmHg 31%
    21:00 +40°C° 0 mm 3 mps 745 mmHg 31%
    22:00 +39°C° 0 mm 2 mps 745 mmHg 30%
    23:00 +39°C° 0 mm 2 mps 745 mmHg 32%

    Tomorrow, 22 July, Sunday

    Time Temperature Precipitation Wind Pressure Humidity
    00:00 +39°C° 0 mm 1 mps 745 mmHg 33%
    01:00 +37°C° 0 mm 1 mps 745 mmHg 34%
    02:00 +37°C° 0 mm 1 mps 745 mmHg 33%
    03:00 +37°C° 0 mm 1 mps 744 mmHg 32%
    04:00 +37°C° 0 mm 1 mps 744 mmHg 31%
    05:00 +37°C° 0 mm 1 mps 745 mmHg 32%
    06:00 +39°C° 0 mm 1 mps 745 mmHg 32%
    07:00 +39°C° 0 mm 1 mps 745 mmHg 32%
    08:00 +40°C° 0 mm 1 mps 745 mmHg 30%
    09:00 +42°C° 0 mm 1 mps 746 mmHg 28%
    10:00 +43°C° 0 mm 2 mps 746 mmHg 26%
    11:00 +45°C° 0 mm 2 mps 746 mmHg 24%
    12:00 +47°C° 0 mm 3 mps 745 mmHg 22%
    13:00 +48°C° 0 mm 3 mps 745 mmHg 20%
    14:00 +48°C° 0 mm 4 mps 745 mmHg 21%
    15:00 +48°C° 0 mm 5 mps 744 mmHg 23%
    16:00 +47°C° 0 mm 6 mps 744 mmHg 25%
    17:00 +45°C° 0 mm 6 mps 744 mmHg 30%
    18:00 +42°C° 0 mm 5 mps 744 mmHg 36%
    19:00 +40°C° 0 mm 5 mps 744 mmHg 41%
    20:00 +40°C° 0 mm 4 mps 744 mmHg 43%
    21:00 +38°C° 0 mm 3 mps 744 mmHg 44%
    22:00 +37°C° 0 mm 1 mps 744 mmHg 46%
    23:00 +37°C° 0 mm 1 mps 744 mmHg 45%

    Day after tomorrow, 23 July, Monday

    Time Temperature Precipitation Wind Pressure Humidity
    00:00 +36°C° 0 mm 1 mps 744 mmHg 44%
    01:00 +34°C° 0 mm 0 mps 744 mmHg 43%
    02:00 +36°C° 0 mm 1 mps 744 mmHg 42%
    03:00 +36°C° 0 mm 1 mps 744 mmHg 42%
    04:00 +36°C° 0 mm 1 mps 743 mmHg 41%
    05:00 +36°C° 0 mm 1 mps 744 mmHg 41%
    06:00 +37°C° 0 mm 2 mps 744 mmHg 41%
    07:00 +37°C° 0 mm 2 mps 744 mmHg 41%
    08:00 +39°C° 0 mm 2 mps 744 mmHg 37%
    09:00 +42°C° 0 mm 3 mps 744 mmHg 33%
    10:00 +43°C° 0 mm 3 mps 745 mmHg 29%
    11:00 +44°C° 0 mm 4 mps 744 mmHg 29%
    12:00 +45°C° 0 mm 4 mps 744 mmHg 28%
    13:00 +47°C° 0 mm 4 mps 744 mmHg 27%
    14:00 +46°C° 0 mm 5 mps 743 mmHg 30%
    15:00 +46°C° 0 mm 5 mps 743 mmHg 33%
    16:00 +45°C° 0 mm 6 mps 742 mmHg 37%
    17:00 +43°C° 0 mm 5 mps 742 mmHg 39%
    18:00 +42°C° 0 mm 4 mps 743 mmHg 42%
    19:00 +40°C° 0 mm 4 mps 743 mmHg 45%
    20:00 +39°C° 0 mm 3 mps 743 mmHg 47%
    21:00 +38°C° 0 mm 2 mps 743 mmHg 49%
    22:00 +37°C° 0 mm 1 mps 744 mmHg 51%
    23:00 +36°C° 0 mm 1 mps 744 mmHg 51%

    24 July, Tuesday

    Time Temperature Precipitation Wind Pressure Humidity
    00:00 +36°C° 0 mm 1 mps 743 mmHg 50%
    01:00 +36°C° 0 mm 1 mps 743 mmHg 49%
    02:00 +36°C° 0 mm 1 mps 743 mmHg 49%
    03:00 +35°C° 0 mm 1 mps 743 mmHg 49%
    04:00 +35°C° 0 mm 1 mps 742 mmHg 49%
    05:00 +36°C° 0 mm 1 mps 743 mmHg 47%
    06:00 +37°C° 0 mm 2 mps 743 mmHg 45%
    07:00 +38°C° 0 mm 2 mps 743 mmHg 43%
    08:00 +39°C° 0 mm 2 mps 744 mmHg 39%
    09:00 +42°C° 0 mm 3 mps 744 mmHg 35%
    10:00 +44°C° 0 mm 3 mps 744 mmHg 32%
    11:00 +45°C° 0 mm 3 mps 744 mmHg 30%
    12:00 +46°C° 0 mm 3 mps 744 mmHg 29%
    13:00 +48°C° 0 mm 4 mps 744 mmHg 28%
    14:00 +48°C° 0 mm 4 mps 743 mmHg 30%
    15:00 +47°C° 0 mm 5 mps 743 mmHg 32%
    16:00 +47°C° 0 mm 5 mps 743 mmHg 34%
    17:00 +45°C° 0 mm 5 mps 743 mmHg 37%
    18:00 +43°C° 0 mm 4 mps 743 mmHg 40%
    19:00 +42°C° 0 mm 4 mps 743 mmHg 43%
    20:00 +40°C° 0 mm 3 mps 743 mmHg 45%
    21:00 +39°C° 0 mm 3 mps 744 mmHg 46%
    22:00 +39°C° 0 mm 3 mps 744 mmHg 47%
    23:00 +38°C° 0 mm 3 mps 744 mmHg 50%

    25 July, Wednesday

    Time Temperature Precipitation Wind Pressure Humidity
    00:00 +38°C° 0 mm 3 mps 744 mmHg 53%
    01:00 +37°C° 0 mm 3 mps 744 mmHg 55%
    02:00 +37°C° 0 mm 3 mps 743 mmHg 58%
    03:00 +36°C° 0 mm 3 mps 743 mmHg 61%
    04:00 +36°C° 0 mm 3 mps 743 mmHg 64%
    05:00 +36°C° 0 mm 3 mps 743 mmHg 63%
    06:00 +36°C° 0 mm 3 mps 744 mmHg 61%
    07:00 +36°C° 0 mm 4 mps 744 mmHg 60%
    08:00 +40°C° 0 mm 4 mps 745 mmHg 50%
    09:00 +42°C° 0 mm 4 mps 745 mmHg 41%
    10:00 +45°C° 0 mm 5 mps 745 mmHg 32%
    11:00 +45°C° 0 mm 4 mps 745 mmHg 29%
    12:00 +47°C° 0 mm 4 mps 745 mmHg 27%
    13:00 +49°C° 0 mm 4 mps 744 mmHg 25%
    14:00 +48°C° 0 mm 4 mps 744 mmHg 28%
    15:00 +48°C° 0 mm 4 mps 744 mmHg 31%
    16:00 +47°C° 0 mm 5 mps 743 mmHg 34%
    17:00 +45°C° 0 mm 4 mps 743 mmHg 39%
    18:00 +43°C° 0 mm 3 mps 744 mmHg 45%
    19:00 +40°C° 0 mm 3 mps 744 mmHg 50%
    20:00 +40°C° 0 mm 2 mps 744 mmHg 51%
    21:00 +39°C° 0 mm 2 mps 745 mmHg 53%
    22:00 +38°C° 0 mm 2 mps 745 mmHg 54%
    23:00 +38°C° 0 mm 2 mps 745 mmHg 56%

    26 July, Thursday

    Time Temperature Precipitation Wind Pressure Humidity
    00:00 +38°C° 0 mm 2 mps 744 mmHg 57%
    01:00 +37°C° 0 mm 2 mps 744 mmHg 59%
    02:00 +37°C° 0 mm 2 mps 744 mmHg 60%
    03:00 +36°C° 0 mm 2 mps 744 mmHg 61%
    04:00 +36°C° 0 mm 2 mps 744 mmHg 62%
    05:00 +36°C° 0 mm 3 mps 745 mmHg 59%
    06:00 +37°C° 0 mm 3 mps 745 mmHg 57%
    07:00 +37°C° 0 mm 4 mps 746 mmHg 54%
    08:00 +40°C° 0 mm 5 mps 746 mmHg 47%
    09:00 +42°C° 0 mm 5 mps 746 mmHg 40%
    10:00 +45°C° 0 mm 5 mps 746 mmHg 33%
    11:00 +45°C° 0 mm 5 mps 746 mmHg 32%
    12:00 +46°C° 0 mm 5 mps 746 mmHg 31%
    13:00 +47°C° 0 mm 6 mps 745 mmHg 30%
    14:00 +47°C° 0 mm 6 mps 745 mmHg 32%
    15:00 +46°C° 0 mm 6 mps 745 mmHg 34%
    16:00 +45°C° 0 mm 6 mps 745 mmHg 36%
    17:00 +43°C° 0 mm 5 mps 745 mmHg 39%
    18:00 +42°C° 0 mm 4 mps 745 mmHg 43%
    19:00 +40°C° 0 mm 4 mps 745 mmHg 47%
    20:00 +39°C° 0 mm 3 mps 745 mmHg 48%
    21:00 +38°C° 0 mm 2 mps 745 mmHg 49%
    22:00 +36°C° 0 mm 1 mps 745 mmHg 50%
    23:00 +36°C° 0 mm 1 mps 745 mmHg 48%
    Show more